EB2GLU-13 Weather Reports


Display with metric or nautical units.
time (UTC)temp
F
wind
direction
speed
MPH
gust
MPH
rain 1hr
in
rain 24hr
in
rain mn
in
humidity
%
barometer
mb
20260504033957 57 158 0.0 1.0 0.00 0.07 0.00 93 1012.3
20260504032727 57 158 0.0 1.0 0.00 0.07 0.00 93 1012.2
20260504031457 57 0 0.0 0.0 0.00 0.07 0.00 93 1012.4
20260504024957 57 158 0.0 1.0 0.00 0.07 0.00 93 1012.3
20260504023727 57 0 0.0 0.0 0.00 0.07 0.00 93 1012.4
20260504022457 57 0 0.0 0.0 0.00 0.07 0.00 93 1012.4
20260504021227 57 158 0.0 2.0 0.00 0.07 0.00 93 1012.5
20260504015957 57 158 0.0 1.0 0.00 0.07 0.00 93 1012.5
20260504014727 57 0 0.0 0.0 0.00 0.07 0.00 93 1012.2
20260504013457 57 0 0.0 0.0 0.00 0.07 0.00 94 1012.4
20260504012227 57 0 0.0 0.0 0.00 0.07 0.00 94 1012.5
20260504010957 57 158 0.0 1.0 0.00 0.07 0.00 93 1012.3
20260504005727 57 158 0.0 1.0 0.00 0.07 0.00 94 1012.4
20260504004457 57 158 0.0 1.0 0.00 0.07 0.00 93 1011.9
20260504003227 57 158 0.0 2.0 0.00 0.07 0.00 94 1011.7
20260504001957 58 0 0.0 0.0 0.00 0.07 0.00 94 1011.9
20260504000727 57 158 0.0 1.0 0.00 0.07 0.00 93 1011.5
20260503235457 58 158 0.0 1.0 0.00 0.07 0.00 94 1012.0
20260503234227 58 0 0.0 0.0 0.00 0.07 0.00 94 1012.2
20260503232957 57 158 0.0 3.0 0.00 0.07 0.00 93 1012.0
20260503231727 57 158 0.0 1.0 0.00 0.07 0.00 94 1012.2
20260503230457 57 158 0.0 1.0 0.00 0.07 0.00 94 1012.1
20260503225227 57 0 0.0 0.0 0.00 0.07 0.00 94 1011.8
20260503223957 58 0 0.0 0.0 0.00 0.07 0.00 94 1011.5
20260503222727 57 0 0.0 0.0 0.00 0.07 0.00 94 1011.2
20260503221457 57 158 0.0 2.0 0.00 0.07 0.00 94 1011.4
20260503220227 58 0 0.0 0.0 0.00 0.07 0.00 94 1011.7
20260503214957 57 158 0.0 1.0 0.00 0.07 0.07 94 1011.8
20260503213727 58 158 0.0 1.0 0.00 0.07 0.07 93 1011.4
20260503212456 57 0 0.0 0.0 0.00 0.07 0.07 93 1011.4
20260503211217 57 158 0.0 1.0 0.00 0.07 0.07 93 1011.5
20260503205946 58 158 0.0 1.0 0.00 0.07 0.07 93 1011.7
20260503204716 58 158 0.0 1.0 0.00 0.07 0.07 93 1011.7
20260503203446 58 158 0.0 2.0 0.01 0.07 0.07 93 1011.6
20260503202216 59 0 0.0 0.0 0.01 0.07 0.07 92 1011.6
20260503195716 60 158 0.0 1.0 0.01 0.07 0.07 92 1011.2
20260503194446 60 158 0.0 3.0 0.01 0.07 0.07 91 1010.9
20260503193216 60 0 0.0 0.0 0.00 0.05 0.05 90 1011.1
20260503191946 61 0 0.0 0.0 0.01 0.05 0.05 90 1010.9
20260503190716 61 158 0.0 1.0 0.01 0.05 0.05 90 1010.8
20260503185446 61 158 0.0 2.0 0.01 0.05 0.05 90 1010.6
20260503184216 62 158 0.0 2.0 0.01 0.05 0.05 88 1010.4
20260503182946 64 158 0.0 2.0 0.00 0.04 0.04 85 1010.3
20260503181716 65 158 0.0 1.0 0.00 0.04 0.04 84 1010.5
20260503180446 66 158 0.0 1.0 0.00 0.05 0.04 81 1010.1
20260503175216 66 158 0.0 1.0 0.00 0.05 0.04 78 1010.0
20260503173946 67 158 0.0 1.0 0.00 0.05 0.04 78 1009.8
20260503172716 68 158 0.0 2.0 0.00 0.05 0.04 75 1010.0
20260503171446 69 158 0.0 1.0 0.00 0.07 0.04 74 1010.1
20260503170216 71 158 0.0 2.0 0.00 0.08 0.04 67 1009.7
20260503150946 71 203 0.0 3.0 0.00 0.15 0.04 76 1010.7
20260503130446 63 203 1.0 3.0 0.03 0.14 0.03 84 1012.3
20260503120215 69 167 3.0 6.0 0.00 0.12 0.00 68 1012.2
20260503080445 65 68 0.0 1.0 0.00 0.12 0.00 82 1012.8
20260503072715 62 0 0.0 0.0 0.00 0.12 0.00 86 1012.9
20260503071445 60 68 0.0 1.0 0.00 0.12 0.00 88 1012.9
20260503070215 60 68 0.0 1.0 0.00 0.12 0.00 88 1013.0
20260503054715 54 68 0.0 1.0 0.00 0.12 0.00 93 1012.8
20260503053445 54 68 0.0 1.0 0.00 0.12 0.00 94 1012.6
20260503052214 54 69 0.0 2.0 0.00 0.12 0.00 93 1012.8
20260503050944 54 69 0.0 2.0 0.00 0.12 0.00 93 1012.6
20260503045715 54 69 0.0 1.0 0.00 0.12 0.00 93 1012.6
20260503044444 55 68 0.0 2.0 0.00 0.12 0.00 93 1012.4
20260503043215 55 68 0.0 2.0 0.00 0.12 0.00 92 1012.4
20260503035444 56 69 0.0 1.0 0.00 0.12 0.00 91 1012.5